GFSWCAN_850_rhum_270.txt.gz
RH
78 67 42 67 62 61 79 88 99 99 99 100 99 98 96 100 97 100 99 92 80 88 93 87 69 68 69 69 77 73 74 74 76 82 70 76 70 59 50 43 59 63 74 81 70 98 85 36 38 45 35 41 36 40
77 82 64 64 65 52 80 87 96 89 96 100 99 90 100 100 100 100 98 94 96 73 91 84 76 74 66 60 62 74 58 59 60 62 67 62 76 66 50 62 46 58 43 57 50 54 44 43 35 37 43 34 38 38
82 76 72 58 71 57 78 87 86 91 90 98 99 98 98 100 100 98 94 93 84 95 100 95 92 77 68 64 54 72 86 77 75 73 67 64 62 52 70 57 48 45 51 52 54 40 44 45 45 44 43 44 38 37
85 84 76 59 73 66 68 81 88 89 85 87 93 97 99 100 100 97 91 83 82 91 98 99 89 84 76 67 63 63 62 60 65 76 66 66 61 57 53 49 53 42 50 48 53 42 47 45 41 38 37 38 43 44
89 89 78 64 74 74 67 85 87 88 86 85 86 100 100 100 100 93 85 82 68 55 99 99 86 85 81 71 63 58 55 60 77 76 77 65 65 66 69 63 58 48 45 63 60 38 37 36 36 39 41 38 36 40
90 92 80 70 76 76 70 72 75 79 82 81 85 96 98 99 100 100 99 92 68 58 80 100 90 93 94 94 92 92 90 87 89 81 78 89 92 78 79 63 41 46 47 46 44 43 47 46 46 43 40 42 40 44
86 88 81 72 76 75 75 73 70 67 70 71 85 87 100 100 100 96 94 89 78 58 68 100 98 96 96 83 87 88 84 84 81 91 88 88 89 87 96 78 44 49 50 50 49 54 58 52 45 43 41 43 49 53
88 81 80 72 75 74 76 75 76 69 77 93 91 86 97 100 100 100 86 71 55 49 53 99 100 98 94 92 95 90 89 76 80 79 81 69 81 79 84 50 45 42 43 47 49 48 51 50 47 42 42 45 49 50
90 83 86 70 69 74 75 73 82 90 98 92 86 87 100 100 100 98 88 66 56 50 87 72 79 97 97 98 95 98 88 80 90 72 62 63 61 74 48 42 40 46 45 45 40 40 40 41 42 35 40 49 53 55
84 82 81 62 64 71 80 83 90 86 100 94 99 100 100 100 97 96 95 93 87 57 65 64 72 96 78 87 97 89 87 82 85 63 80 73 54 45 45 42 41 43 45 44 44 43 43 44 43 46 52 54 56 52
92 89 71 62 65 70 84 91 91 95 100 100 100 99 100 100 100 100 99 100 99 100 66 67 71 88 85 71 87 70 77 73 78 74 83 67 66 62 44 42 44 47 47 46 46 47 50 52 51 50 50 52 55 54
67 66 70 78 79 74 82 91 95 99 99 97 97 99 99 99 99 97 96 98 93 80 72 62 66 71 83 73 74 78 69 69 68 73 88 84 53 45 49 46 42 46 37 34 40 46 43 47 46 54 56 55 54 56
89 91 92 90 88 89 93 97 95 100 100 98 98 99 98 98 96 93 94 89 86 69 69 76 83 86 88 75 74 70 78 77 71 89 70 51 41 44 48 51 45 45 34 32 34 36 34 34 34 37 40 40 44 43
99 98 100 99 100 99 99 100 100 100 90 99 98 96 97 95 92 74 56 57 64 68 70 63 62 64 73 70 73 76 59 77 90 89 74 62 51 47 49 36 33 41 35 30 30 29 29 30 35 40 40 38 38 36
97 100 100 100 99 99 100 100 98 89 87 99 90 93 89 81 75 67 65 67 72 66 57 57 60 57 70 89 63 69 90 84 65 52 53 45 42 43 47 42 45 47 34 34 33 30 30 34 35 40 47 46 47 49
100 100 100 96 98 100 100 98 94 80 95 92 86 85 78 81 88 76 65 73 66 54 51 56 69 66 71 56 72 72 57 51 49 48 42 43 44 49 44 33 32 34 35 34 30 28 31 33 39 40 52 56 56 56
95 97 99 99 100 100 100 96 97 97 98 91 89 75 67 75 83 77 71 67 55 48 79 67 66 58 62 62 52 42 54 50 48 46 52 46 44 47 48 38 32 32 32 34 33 34 32 30 40 43 53 60 61 61
99 99 99 99 99 98 92 78 92 95 92 84 79 80 89 86 84 76 70 60 54 73 70 62 72 78 74 58 51 53 57 58 53 50 47 31 32 32 31 34 33 34 35 38 39 39 44 48 48 50 58 63 66 59
99 99 100 98 93 82 94 92 89 94 99 99 95 91 92 94 91 78 71 64 64 63 54 75 68 62 51 49 45 55 57 51 48 49 27 29 32 35 35 33 34 39 37 37 36 36 44 49 51 59 64 66 64 56
100 99 96 91 64 70 93 86 80 91 87 90 80 82 84 93 95 89 91 88 77 71 68 55 44 46 36 47 40 39 34 36 43 42 42 31 34 37 33 37 41 44 42 39 38 39 44 52 56 66 68 66 54 59
86 82 61 53 50 58 88 89 93 80 87 84 82 72 86 82 88 84 77 82 70 59 50 56 50 33 31 31 30 32 32 30 33 43 38 39 38 39 38 38 41 41 40 40 40 45 53 56 62 70 73 61 58 62
89 64 54 60 78 89 93 89 84 83 87 80 69 64 68 70 76 79 88 72 63 52 58 56 54 50 41 31 32 32 31 32 33 33 34 35 35 44 42 43 58 42 38 42 46 47 55 58 64 76 65 55 59 64
73 56 60 64 88 80 91 98 79 78 71 78 66 63 64 63 73 78 65 59 57 65 55 42 34 30 28 27 34 30 33 34 36 36 35 34 40 52 38 30 40 47 44 44 46 49 54 57 62 73 60 56 59 64
57 60 69 96 89 99 96 82 77 74 73 73 57 67 71 78 76 59 52 47 49 48 43 31 46 48 49 50 50 50 32 37 42 52 50 57 59 55 44 37 39 39 40 46 48 51 54 59 65 67 60 60 62 67
62 92 85 93 92 87 87 81 71 72 74 73 78 91 93 88 80 74 71 61 66 58 40 47 48 56 52 50 50 48 37 50 56 59 53 44 49 52 51 53 38 34 42 44 49 50 56 60 65 65 59 61 65 69
86 96 86 87 83 78 75 96 87 77 79 90 82 82 92 83 93 87 66 65 71 61 40 44 48 59 55 49 55 55 57 59 54 57 40 52 52 55 56 59 55 45 45 47 49 49 56 61 64 68 61 63 69 75
89 96 99 93 76 74 85 79 67 78 92 97 88 86 86 88 81 58 57 42 47 41 41 42 44 47 56 62 50 50 52 56 59 55 57 58 57 60 65 66 61 55 58 57 56 57 60 62 65 68 66 70 74 79
88 86 91 94 85 80 89 86 88 85 76 74 72 89 83 73 61 61 47 43 40 39 41 45 48 52 57 62 62 62 64 66 68 68 68 62 59 67 72 72 74 74 72 70 69 67 68 67 68 70 74 76 78 81
96 95 88 98 91 86 82 82 73 62 70 72 91 77 78 72 56 47 43 42 43 44 45 52 59 61 61 65 70 74 87 91 91 91 85 82 83 83 83 81 81 82 82 82 75 69 69 74 77 78 79 80 83 86
96 90 95 96 86 84 92 82 84 75 67 77 73 67 66 60 54 50 50 50 51 52 54 57 62 65 69 77 89 91 91 95 98 100 100 99 94 92 90 87 86 85 83 81 80 79 82 85 85 85 84 85 87 88
92 86 95 92 91 100 100 96 91 86 83 81 75 78 81 66 62 57 56 55 57 62 63 65 70 72 75 88 96 94 95 93 92 95 99 100 95 97 96 88 83 82 84 88 90 88 85 84 85 86 89 92 92 85
94 92 92 96 95 100 100 100 100 100 100 99 97 88 86 82 87 73 65 64 67 72 78 90 98 95 87 85 97 100 99 99 97 96 94 95 93 91 89 88 84 82 82 84 90 90 92 93 93 95 98 98 92 96
99 99 100 96 96 96 100 99 96 98 100 99 100 100 100 98 94 83 79 76 78 83 92 100 100 100 99 92 90 87 85 84 84 83 82 82 83 87 93 95 95 95 96 97 99 99 98 97 98 98 98 97 97 97

GFSWCAN_850_rhum_273.txt.gz
RH
68 54 55 54 37 67 58 66 86 96 100 100 100 94 100 98 100 100 97 90 88 92 98 86 94 75 72 72 82 85 82 80 82 79 69 59 51 40 40 37 50 56 64 71 64 95 83 31 29 41 33 35 31 30
70 73 66 78 48 53 61 58 86 91 100 99 99 98 100 100 98 100 100 100 99 94 94 89 92 85 74 63 64 73 62 68 61 62 55 51 51 41 43 52 35 58 44 55 49 50 37 32 32 33 33 34 29 29
74 69 70 72 72 51 68 57 92 94 99 98 97 100 100 96 95 100 98 95 100 96 100 99 92 80 75 71 70 75 74 57 48 45 42 50 57 40 56 46 38 38 34 44 42 35 38 34 32 35 36 36 35 32
80 80 81 78 67 59 69 58 89 93 95 96 94 99 98 91 98 100 99 97 85 92 98 99 98 81 75 69 71 62 59 63 60 63 51 56 55 39 45 38 39 35 36 44 46 35 34 36 36 36 35 32 31 32
82 83 83 79 77 62 65 64 75 93 94 94 95 99 100 91 97 100 99 100 85 77 99 100 97 88 83 70 70 79 72 70 63 61 54 53 38 48 47 47 46 35 37 58 57 39 39 37 34 32 32 34 36 33
84 82 83 88 82 65 64 69 69 84 90 93 96 98 99 100 99 100 100 100 99 81 89 100 100 100 88 83 79 71 65 60 51 49 52 48 71 53 61 58 38 34 34 35 36 36 36 36 37 38 38 35 33 33
88 82 76 92 90 68 68 74 66 84 82 88 88 91 98 99 99 100 94 93 88 78 76 100 99 99 93 90 87 82 80 72 60 67 68 76 63 68 60 61 35 35 34 39 39 39 39 41 41 38 36 34 34 35
84 79 77 86 90 72 74 77 75 77 75 74 86 97 100 100 100 100 90 88 79 74 83 100 100 99 96 91 95 87 80 73 73 76 74 67 75 70 70 42 40 39 37 38 40 40 38 39 39 37 36 36 35 34
86 89 85 86 89 76 78 78 79 83 80 88 99 99 100 99 100 100 97 92 81 85 96 77 94 100 98 89 84 84 75 81 72 67 54 55 58 69 48 40 35 32 34 32 32 35 36 35 32 32 33 33 33 33
98 96 98 90 86 80 78 82 79 84 86 100 100 98 100 100 100 100 100 100 100 93 72 60 62 95 82 80 87 84 68 71 76 53 59 56 49 39 38 34 33 34 34 34 36 34 34 36 37 38 38 38 38 39
96 99 93 84 84 84 79 91 87 90 99 99 98 99 99 100 100 100 99 100 99 100 68 58 68 84 71 73 79 56 68 64 69 68 66 58 54 50 37 36 32 34 35 36 37 38 38 38 40 42 43 44 45 45
96 97 89 84 83 86 81 94 93 92 98 98 89 99 100 100 99 100 100 100 100 89 55 64 66 64 72 62 67 58 59 59 61 61 78 71 42 36 36 33 34 37 38 36 35 35 36 38 42 44 44 45 47 50
92 89 84 84 88 83 80 91 89 97 99 100 99 99 99 98 97 96 95 96 82 57 54 59 77 77 70 59 58 55 72 78 58 82 69 43 34 32 34 37 38 37 39 37 36 39 43 42 39 44 46 47 51 52
85 84 91 92 90 81 85 87 93 98 100 100 99 97 99 98 93 75 55 54 54 53 60 58 51 52 56 57 60 67 50 55 72 65 54 54 34 30 34 38 36 36 38 38 38 38 40 44 40 29 31 33 40 40
91 82 76 78 78 76 97 87 97 99 99 99 99 97 94 80 64 56 50 57 59 61 52 49 49 46 56 81 49 54 69 69 52 38 43 40 34 34 38 39 37 36 40 39 42 44 36 27 27 28 31 36 38 47
96 94 96 88 79 92 93 93 98 100 95 96 99 93 75 74 80 65 59 65 62 50 44 42 48 51 56 46 54 70 53 44 37 36 32 30 30 32 37 40 40 42 42 43 41 43 43 33 30 30 30 38 42 49
100 100 98 99 99 99 94 100 98 99 97 98 96 73 70 69 79 74 68 63 51 46 61 48 56 47 41 47 43 34 38 37 39 39 32 30 30 35 36 40 44 30 39 40 40 46 48 36 36 35 41 48 46 52
97 96 96 99 99 98 100 98 98 97 96 84 80 80 77 75 74 70 62 52 47 47 43 46 49 52 70 44 36 38 41 39 35 36 36 29 30 35 41 42 45 49 50 51 49 40 37 38 45 54 61 52 52 62
100 99 99 99 99 98 99 99 95 91 96 95 89 83 79 77 72 63 55 52 58 56 56 50 50 45 45 38 47 49 48 44 42 39 39 35 35 40 52 48 46 49 54 59 55 56 53 40 36 47 53 55 59 70
100 100 100 100 78 74 96 99 98 91 93 96 91 85 80 74 66 66 69 66 66 60 54 44 42 42 45 44 53 53 51 47 46 49 49 52 55 56 54 51 49 46 54 64 64 57 54 59 63 50 53 56 64 75
98 100 98 73 64 92 91 98 98 98 97 98 85 83 95 87 78 78 76 63 56 49 52 45 48 62 61 58 48 45 46 43 39 36 34 39 48 59 53 54 57 66 66 61 58 56 56 43 46 54 54 49 64 75
98 97 74 61 78 94 88 83 80 89 85 77 62 68 78 83 81 75 74 61 53 47 48 51 48 48 60 51 42 39 46 41 39 46 43 41 42 44 46 43 45 50 55 58 63 63 65 44 44 45 51 54 70 62
81 92 89 84 87 88 97 81 68 52 69 69 54 54 59 61 63 65 59 50 48 55 56 56 51 48 45 51 50 47 45 47 45 48 52 52 52 53 53 52 51 50 50 40 32 48 69 47 45 46 52 63 70 58
46 72 95 94 86 98 84 80 66 62 53 48 47 54 61 69 66 49 43 39 42 50 57 55 49 47 47 48 49 49 51 50 51 54 54 54 54 53 50 50 47 49 59 52 38 59 56 46 50 49 52 61 71 63
70 95 84 92 77 88 83 78 61 61 72 66 71 76 78 62 58 53 47 45 51 57 57 56 56 52 50 46 47 49 53 54 55 54 53 55 49 55 55 61 65 68 71 73 59 52 43 41 48 51 57 65 70 65
88 97 86 85 77 79 64 84 80 71 70 81 70 78 78 67 79 76 50 52 59 63 52 55 63 59 60 59 55 53 55 60 65 66 55 63 67 69 72 77 65 59 59 60 63 57 51 48 47 51 59 62 70 68
82 90 76 69 57 57 68 61 52 70 90 92 81 84 82 89 87 48 57 71 68 50 36 38 74 76 68 68 77 76 65 65 78 82 80 68 61 63 66 61 58 62 68 68 70 71 67 58 51 52 60 69 73 70
76 66 87 68 70 61 94 80 90 94 61 57 63 91 86 79 55 60 78 44 42 43 48 54 64 73 64 55 52 54 57 57 59 61 64 66 66 67 66 67 70 70 72 73 76 78 72 68 66 66 70 73 74 72
82 74 82 93 88 77 81 84 64 46 56 58 96 65 71 59 76 56 45 44 43 52 89 76 52 51 51 50 51 54 56 58 67 82 89 95 97 96 90 87 84 81 79 78 80 82 80 76 74 75 77 77 79 82
86 76 85 96 94 87 93 91 92 82 69 65 68 68 70 63 54 52 53 54 60 52 45 48 51 55 54 54 57 66 78 82 89 93 100 98 99 98 96 90 86 85 86 85 84 81 75 74 75 79 82 83 84 86
85 91 94 86 97 99 99 100 85 74 83 82 74 94 94 72 60 56 54 52 50 49 52 55 58 59 60 62 68 80 90 87 91 90 89 95 99 100 93 95 92 86 86 90 91 90 89 89 89 89 88 87 88 93
100 99 93 95 94 100 98 98 100 98 97 99 98 82 86 86 98 78 61 58 60 64 68 73 84 88 80 73 73 77 94 98 98 97 96 96 97 93 94 92 91 90 86 86 90 94 97 98 96 96 97 96 98 98
100 100 99 95 93 95 100 95 88 97 99 99 99 98 98 99 99 98 75 74 78 93 100 99 98 100 93 81 81 85 88 88 84 84 83 80 79 79 81 82 89 94 94 94 95 96 98 99 98 98 98 98 97 97

GFSWCAN_850_rhum_279.txt.gz
RH
64 58 54 52 50 47 55 52 44 36 52 60 66 82 94 100 100 100 88 83 100 98 98 93 87 75 80 73 88 98 95 98 96 88 84 86 79 62 55 55 70 76 87 95 89 93 85 41 32 42 46 31 28 28
61 54 47 44 47 51 52 52 61 48 38 63 64 92 98 100 99 100 96 84 98 100 99 97 89 85 80 70 68 91 75 92 86 91 83 69 71 62 59 80 50 79 71 85 77 78 48 36 34 35 32 31 29 28
65 62 57 54 54 52 48 49 58 68 48 65 67 96 99 100 99 100 90 94 100 100 99 100 100 95 86 82 75 84 91 80 81 61 77 76 61 67 69 72 63 53 46 66 58 50 47 34 34 34 32 34 33 32
68 67 61 64 68 62 58 55 56 64 54 67 79 95 100 99 99 97 98 92 100 99 99 100 99 99 96 96 95 83 71 84 81 76 91 90 71 50 66 59 68 59 49 61 62 42 42 35 32 33 33 34 33 33
73 67 62 71 75 74 71 64 65 65 55 64 89 95 100 98 99 100 97 92 100 100 99 99 100 100 99 94 94 100 92 90 94 98 98 94 74 55 64 63 60 45 59 68 76 47 48 40 36 35 35 35 34 35
75 71 68 70 76 75 76 75 72 70 59 70 88 97 100 100 99 99 98 72 99 100 88 100 99 97 98 98 85 91 99 95 94 93 94 88 77 67 85 78 47 34 32 35 46 37 38 40 38 36 34 35 37 37
75 77 74 68 76 78 81 79 72 73 64 73 91 97 100 100 99 100 93 98 99 100 90 100 100 100 100 100 100 100 100 100 94 98 96 92 85 76 94 81 44 38 37 35 36 37 40 38 37 36 36 37 38 35
65 76 71 54 75 82 81 83 85 82 69 76 93 96 99 100 92 99 91 100 100 96 96 99 100 100 100 100 100 98 97 92 98 98 94 92 75 73 88 59 44 39 36 35 34 36 36 36 38 36 36 37 34 34
61 73 85 61 60 82 77 82 88 71 77 92 87 87 99 98 98 100 97 99 100 99 99 98 96 99 98 100 100 95 93 100 95 98 90 78 87 88 70 51 45 44 41 35 36 37 38 39 38 36 35 31 31 33
88 88 83 57 49 81 79 83 88 74 84 86 90 99 96 90 92 97 100 100 100 100 98 95 93 99 91 98 98 96 91 99 100 92 73 85 88 62 52 48 44 38 38 39 37 36 35 36 37 32 32 33 35 37
96 95 67 56 62 80 82 86 86 88 96 97 99 99 90 99 100 100 100 100 100 100 99 80 87 95 83 96 99 93 98 95 100 93 84 87 91 70 49 43 38 38 35 34 34 33 34 34 32 34 36 36 37 37
96 90 75 69 72 75 80 85 87 97 97 90 98 97 90 99 100 99 99 99 99 99 98 88 80 69 62 66 91 88 96 92 93 74 88 92 80 39 42 47 41 35 33 32 33 33 33 34 36 36 38 40 33 23
82 75 79 90 92 88 90 90 91 98 98 99 100 100 99 99 98 98 97 99 99 99 82 74 80 62 61 64 86 82 91 94 70 92 89 87 53 36 35 38 45 41 37 34 32 32 36 37 37 37 38 30 31 27
81 88 97 96 95 96 94 90 94 99 99 99 99 99 98 98 97 96 89 85 78 74 72 67 74 84 65 82 81 76 83 83 94 99 88 88 45 35 36 38 42 38 34 33 34 35 35 35 36 36 28 30 26 26
91 94 98 96 95 95 93 91 95 99 98 100 100 95 97 82 92 84 78 78 63 69 64 66 67 67 85 80 72 76 86 89 84 81 76 46 34 37 36 38 37 34 36 35 33 34 36 38 39 38 33 26 26 26
99 99 99 98 96 90 97 95 99 99 94 100 99 96 94 96 94 90 84 81 68 66 54 52 82 77 80 81 74 78 80 80 71 68 40 30 38 34 36 35 36 36 35 35 34 36 39 40 41 37 30 26 27 31
99 99 91 93 91 94 94 99 99 99 96 99 92 96 97 100 99 94 84 73 65 56 84 87 70 63 74 80 73 77 80 77 53 41 41 36 39 36 36 36 36 35 37 39 39 38 38 41 43 39 33 32 37 37
96 87 86 94 94 97 99 99 96 91 100 97 100 91 92 73 95 98 92 68 59 50 52 63 54 62 78 69 67 72 60 39 30 40 41 40 37 37 37 35 35 38 38 38 40 42 43 44 42 35 36 34 35 33
85 79 85 89 93 98 99 99 92 96 95 99 96 97 91 79 54 80 95 66 53 42 41 60 65 74 68 66 72 51 41 39 41 42 42 36 34 37 38 38 39 40 41 40 40 40 39 36 39 45 37 36 35 35
97 77 85 89 93 77 96 99 91 84 97 98 90 88 80 98 99 98 99 61 47 52 67 72 68 67 58 45 33 38 37 40 40 37 36 35 36 37 39 40 42 46 48 48 48 46 53 60 52 38 35 39 35 33
99 93 87 90 78 74 87 88 97 98 98 99 99 97 98 80 100 100 99 57 53 65 85 76 70 57 53 47 43 41 49 44 37 33 36 38 43 40 44 46 48 49 45 47 52 53 49 36 36 46 52 51 47 45
98 99 100 92 87 96 94 79 76 89 97 99 99 99 100 100 100 100 91 76 67 64 67 61 57 52 54 53 53 51 49 45 47 46 43 41 43 46 51 50 47 48 51 52 54 44 24 21 31 38 40 53 65 65
99 100 98 92 100 99 99 76 79 86 98 100 100 99 99 100 100 88 100 85 64 62 57 52 48 48 51 51 44 41 46 46 42 39 43 46 40 34 33 42 50 50 47 41 32 26 27 37 44 50 56 62 66 64
94 90 95 99 95 100 99 95 86 91 100 98 95 98 100 100 100 89 98 70 62 60 56 52 44 40 38 39 34 34 38 39 41 43 46 52 52 50 48 48 49 48 44 40 40 39 38 39 48 60 65 62 60 72
83 97 98 99 89 94 96 96 96 90 97 98 95 98 98 96 98 83 77 84 61 64 54 48 44 47 47 45 42 42 41 40 40 35 31 28 30 36 41 46 46 48 54 56 56 55 54 59 65 66 68 73 80 79
97 98 96 91 92 86 88 96 96 97 95 97 97 99 81 90 91 81 64 65 62 58 55 51 44 43 46 47 48 48 48 45 44 48 50 54 56 58 58 57 54 49 52 62 69 70 71 71 66 70 74 74 72 72
92 97 82 68 60 66 87 89 80 89 96 96 95 95 94 94 88 86 81 60 57 56 56 53 50 50 51 54 57 60 55 53 53 53 53 57 59 59 60 63 66 70 80 86 88 86 81 68 63 71 75 76 74 75
100 86 85 71 74 67 94 95 96 97 91 82 91 96 90 86 96 96 94 88 68 66 61 65 64 62 63 64 63 62 61 63 65 65 66 65 63 65 71 74 76 78 78 74 70 68 69 70 71 75 83 87 86 92
99 83 74 86 88 94 98 96 89 69 71 80 92 92 98 99 100 100 100 84 71 61 63 68 71 68 64 63 56 46 42 42 43 45 47 50 58 65 66 73 88 99 97 82 81 85 86 84 82 83 89 91 95 98
96 89 96 96 94 98 100 100 100 91 75 76 75 93 99 100 99 100 81 60 50 48 47 46 41 42 41 43 43 44 44 46 53 64 68 79 86 87 96 98 98 97 94 92 92 91 90 89 86 83 81 85 89 92
89 86 88 91 98 100 100 99 86 80 87 96 76 90 100 99 89 80 66 58 52 48 43 40 40 41 44 48 52 54 58 62 63 71 80 87 90 90 92 93 91 90 87 86 85 88 92 89 87 86 88 89 92 98
86 88 87 85 99 97 92 89 91 93 94 95 98 99 99 99 98 94 66 55 52 54 55 57 60 64 63 58 57 56 56 60 64 71 82 93 93 89 88 91 91 90 88 84 85 82 88 97 97 96 98 100 100 98
89 88 88 85 94 87 92 88 89 90 88 86 92 94 100 99 99 97 92 80 78 85 81 79 73 77 70 63 63 62 66 71 70 76 86 86 83 79 75 75 74 74 77 79 90 94 97 100 100 100 100 99 98 97

GFSWCAN_850_rhum_285.txt.gz
RH
82 88 92 94 98 99 98 89 58 48 41 38 40 42 48 57 58 79 82 90 98 99 97 93 84 98 88 90 95 79 84 87 93 98 99 99 97 76 76 67 73 81 91 93 96 92 77 49 42 48 46 36 32 36
97 99 95 100 98 96 95 84 61 52 56 47 37 36 36 44 59 66 87 77 88 100 97 98 93 97 99 97 98 96 94 72 76 91 92 98 98 96 88 96 75 82 69 83 71 69 52 44 34 29 29 28 36 35
87 96 99 99 96 88 69 58 51 49 45 42 37 34 36 38 57 64 76 84 100 100 100 100 96 59 79 93 81 98 94 86 81 70 88 93 91 85 95 83 86 72 65 76 65 60 55 42 33 27 27 26 29 30
97 95 97 98 96 71 57 51 47 44 42 39 37 33 38 40 55 70 95 89 100 100 99 81 71 92 86 98 94 98 99 98 72 90 90 96 84 72 75 65 74 78 68 74 66 60 53 43 29 29 29 27 28 30
87 95 96 91 78 67 62 56 55 55 52 46 42 40 40 44 59 83 96 97 100 100 99 97 95 58 55 63 98 91 99 100 98 95 98 95 93 79 86 75 73 71 64 67 73 57 52 46 33 30 30 31 32 33
91 76 74 78 76 70 63 57 58 63 65 59 55 55 53 52 70 100 99 89 81 99 100 98 84 80 59 96 100 100 100 100 98 100 100 98 94 84 84 81 57 50 43 37 52 37 33 33 36 33 31 33 33 33
90 80 76 76 76 70 66 61 60 66 69 67 68 68 64 58 96 100 98 100 100 100 100 99 99 97 84 98 100 93 94 97 95 97 100 99 100 86 96 87 58 49 40 36 32 35 45 41 41 36 34 35 35 34
93 87 71 80 82 75 72 65 65 72 76 78 76 72 66 72 99 99 86 91 99 99 100 99 97 98 99 100 100 100 100 95 93 95 100 98 99 97 99 81 67 49 47 41 37 33 36 39 38 38 36 36 36 36
88 79 79 67 63 76 76 56 67 80 80 82 82 76 86 98 98 99 72 83 97 100 100 100 99 98 100 99 99 100 95 100 98 98 99 89 100 98 86 76 72 56 52 47 45 38 38 38 39 37 36 36 36 36
79 79 71 76 58 61 79 70 60 82 79 92 91 90 98 93 84 92 91 100 100 99 100 99 98 98 100 98 100 97 98 100 100 95 97 97 95 80 70 68 61 47 52 53 52 49 45 44 39 37 37 37 37 36
77 77 69 69 76 60 69 80 59 90 97 99 87 91 97 98 98 100 100 99 99 99 100 98 96 98 98 99 99 99 99 99 100 98 96 99 97 85 62 62 67 61 66 66 58 54 43 39 39 38 37 37 37 35
74 71 70 66 74 87 83 80 58 94 99 86 84 91 96 95 99 99 98 98 99 95 98 99 96 96 99 93 98 99 99 99 98 96 96 96 80 63 59 61 60 58 57 58 62 62 49 39 38 37 36 35 34 34
69 72 74 72 76 89 94 70 60 85 99 95 90 99 100 95 98 97 96 98 98 98 99 100 99 98 98 97 99 99 98 98 89 99 94 85 66 58 60 57 53 49 47 43 44 41 39 37 37 37 35 35 35 28
80 72 70 75 92 98 96 66 75 97 99 98 99 97 98 97 96 92 93 98 85 88 97 96 99 96 99 99 99 89 98 91 99 100 89 86 57 45 48 56 48 46 40 39 39 38 38 38 37 37 36 35 26 21
97 96 85 80 94 98 96 77 94 98 98 99 99 92 98 85 82 89 99 99 87 77 97 94 95 84 94 99 99 98 99 97 91 83 78 60 38 39 60 58 47 41 38 36 36 35 36 37 37 39 36 26 22 23
94 97 96 87 95 97 98 97 98 98 99 97 99 98 86 99 94 95 90 94 90 93 99 99 99 100 98 90 94 91 89 78 69 82 47 41 42 42 46 53 43 36 36 35 34 35 37 38 38 37 32 29 26 23
93 98 84 83 94 97 98 99 98 98 99 100 90 96 92 99 98 99 100 100 100 100 100 100 97 96 86 84 80 83 84 82 70 51 49 41 44 48 44 44 48 44 36 35 37 38 39 40 37 33 29 27 26 24
100 93 74 82 94 97 98 98 98 98 98 98 97 82 92 86 83 86 94 98 98 100 91 99 78 81 86 74 75 77 74 53 49 42 38 34 34 40 41 41 45 48 37 37 38 40 38 37 33 33 32 32 26 25
92 86 89 100 98 98 98 98 98 98 92 92 92 81 95 88 85 90 97 100 97 100 100 87 72 75 73 78 71 56 48 47 52 53 44 39 38 39 43 43 45 43 38 39 38 38 37 33 34 39 39 30 26 27
98 99 99 99 98 92 99 99 77 92 93 89 88 95 90 92 94 97 89 98 100 100 95 82 72 66 58 38 34 41 40 41 40 47 49 48 44 41 42 39 38 38 38 38 39 38 38 44 46 42 30 28 29 31
99 98 99 99 98 97 91 93 83 69 88 93 89 96 96 88 86 94 96 88 100 100 89 66 55 52 52 51 42 35 38 40 36 39 46 50 44 39 40 38 38 39 41 42 42 44 44 43 36 30 33 40 37 35
100 99 99 98 96 90 82 76 79 80 75 84 85 95 98 98 100 99 98 100 100 92 72 63 54 57 51 48 38 37 39 41 44 44 41 40 41 40 41 42 41 41 41 41 40 39 37 34 38 39 36 35 36 42
99 98 98 98 98 91 86 80 97 98 94 94 98 94 96 99 99 100 99 100 97 78 74 72 63 56 53 53 47 48 46 42 44 42 41 40 41 42 42 40 37 38 42 44 41 35 41 48 41 37 36 33 38 45
98 95 95 95 95 95 99 99 98 92 90 95 99 98 95 97 100 99 98 99 86 78 69 64 57 62 58 51 47 48 46 40 45 45 44 43 46 47 46 47 45 43 42 48 52 54 47 41 42 41 38 39 49 52
97 95 91 97 100 97 98 99 97 98 99 99 98 99 99 99 98 98 98 99 83 69 66 55 52 49 48 50 49 49 47 45 47 50 51 44 43 44 46 52 53 51 50 50 46 42 37 35 34 38 43 52 58 62
94 99 96 93 97 94 93 95 98 98 96 99 96 99 100 98 98 97 99 100 87 68 52 48 47 48 48 45 50 50 51 46 40 45 52 48 44 43 48 48 45 39 33 29 27 32 39 42 44 53 61 70 77 79
99 100 100 84 80 84 97 94 88 90 95 98 97 100 93 94 96 98 100 98 81 61 50 45 41 41 45 46 44 42 41 35 28 32 37 36 33 33 35 37 36 39 42 44 48 52 54 56 63 70 77 85 79 71
98 99 97 95 87 80 94 97 95 96 92 86 90 96 86 84 96 99 100 93 98 79 66 49 44 39 44 46 46 44 43 40 41 41 40 41 45 47 49 52 56 62 66 68 69 70 69 68 70 75 78 77 77 89
99 88 77 100 99 96 95 91 89 89 81 82 93 100 100 100 100 99 100 99 99 91 73 58 58 51 49 54 55 56 55 54 50 54 57 57 61 64 62 59 58 59 62 69 84 91 90 87 84 83 83 84 83 87
99 94 96 96 95 100 100 99 100 100 98 97 98 99 98 98 98 99 100 100 98 89 64 56 60 63 61 61 61 63 65 67 66 63 59 53 52 56 66 71 67 70 81 92 92 88 86 88 89 86 83 82 79 84
98 97 97 97 97 98 100 100 100 99 98 100 99 98 98 98 99 100 100 100 96 84 75 77 82 79 69 67 62 56 54 55 53 52 53 55 59 65 72 77 80 85 88 86 81 79 82 84 83 89 96 91 87 94
98 97 96 97 98 98 97 94 92 95 98 96 98 98 98 97 100 100 100 100 99 93 82 77 70 63 58 52 52 52 51 52 57 62 67 67 65 66 71 74 76 74 73 72 73 76 84 84 84 86 93 95 99 100
98 98 93 95 97 93 87 83 87 91 95 97 98 96 98 98 100 99 99 100 95 86 76 71 65 60 57 58 61 62 62 64 67 62 55 56 56 56 57 61 64 64 63 63 63 65 72 79 92 92 100 100 98 96

GFSWCAN_850_rhum_291.txt.gz
RH
87 88 87 93 91 98 89 74 30 46 77 85 88 84 75 72 78 96 96 89 95 98 97 92 87 86 87 86 89 73 78 70 77 82 76 72 72 58 63 60 62 58 61 66 72 85 86 36 45 61 44 33 40 40
89 87 98 88 98 96 84 75 67 76 88 91 94 96 92 66 71 99 100 99 100 100 99 92 91 86 88 84 80 80 73 60 62 81 80 85 94 82 77 91 53 72 56 61 52 54 40 38 40 37 39 40 35 32
89 91 94 94 100 92 81 79 89 93 97 98 99 96 81 66 69 76 81 100 98 100 98 88 80 44 65 66 61 97 77 77 73 73 77 82 92 74 86 73 74 63 48 60 60 50 48 42 41 34 32 35 37 37
92 88 95 97 99 98 89 94 92 95 98 99 98 82 60 54 52 58 70 93 99 90 96 66 53 60 44 56 62 71 69 81 84 86 97 96 96 71 81 69 71 70 74 76 62 52 48 49 45 42 41 40 39 37
83 90 94 98 98 92 91 95 94 99 100 99 95 84 69 65 62 62 66 68 67 99 87 86 78 35 63 86 89 83 100 100 99 97 96 94 85 88 82 80 80 60 68 82 81 50 51 49 44 44 42 42 35 37
92 93 96 98 98 98 100 98 98 99 98 95 84 62 58 59 63 72 90 53 62 75 99 86 52 38 49 66 72 67 94 100 100 96 94 91 82 85 95 87 57 53 60 65 66 56 64 51 49 45 50 53 52 43
97 95 97 98 98 98 100 98 92 80 70 64 61 69 75 69 71 81 61 73 72 90 97 96 98 70 61 61 69 84 86 98 99 96 95 92 80 94 95 95 62 55 55 63 60 62 73 64 58 54 62 69 72 61
62 95 97 98 98 98 98 95 90 71 63 64 66 69 70 71 82 94 59 74 94 98 90 100 84 74 48 64 86 87 94 99 100 95 93 94 90 90 96 80 70 72 70 60 68 56 59 56 66 64 64 75 65 50
54 93 97 98 96 97 97 95 90 72 67 65 74 84 94 99 99 98 54 54 61 74 82 97 86 79 82 88 84 75 69 84 77 98 95 95 95 98 85 70 65 62 70 65 58 62 66 64 68 77 76 67 53 49
70 96 97 98 94 88 96 92 84 70 67 81 93 96 88 86 71 72 88 89 99 97 97 93 72 82 63 60 72 98 96 98 99 96 95 97 94 74 71 66 63 62 59 63 57 72 76 71 71 78 76 63 47 40
74 73 67 95 84 78 75 81 85 72 70 98 95 89 76 83 88 85 99 99 90 97 99 89 82 84 68 80 82 72 95 99 99 97 100 100 98 79 66 70 63 74 66 62 60 49 62 58 73 63 58 58 46 40
75 63 51 82 87 69 75 65 76 85 71 82 91 94 87 89 97 99 94 97 98 88 87 91 84 92 82 72 95 99 99 99 98 97 100 99 81 70 76 77 78 68 66 63 58 56 60 63 63 62 58 52 46 51
81 64 54 63 82 74 65 75 66 78 90 89 86 98 97 97 98 95 95 94 97 93 99 99 97 98 99 99 98 100 99 98 96 100 99 87 77 66 66 83 90 84 77 62 60 54 54 64 66 61 67 66 56 56
84 77 73 73 73 69 67 69 92 86 97 94 98 97 96 98 94 81 79 80 83 94 98 100 97 100 99 100 99 100 97 98 100 98 94 84 70 78 83 74 86 85 70 62 61 67 67 67 76 74 73 76 82 84
84 83 85 73 66 64 71 79 94 98 97 96 98 94 95 77 76 77 80 80 64 91 99 97 99 99 98 99 100 100 100 99 93 90 85 70 66 86 74 78 87 84 83 78 81 83 89 81 79 82 85 90 85 64
85 93 89 80 69 66 84 96 96 98 96 98 98 97 88 91 87 88 79 90 91 84 84 100 99 99 99 100 99 96 95 88 74 80 70 62 57 87 86 85 87 91 92 90 81 77 80 88 92 95 91 76 62 44
98 99 78 89 90 88 94 98 98 98 98 98 96 88 79 86 92 94 73 88 84 99 90 97 97 99 99 98 93 84 89 80 75 63 59 59 54 64 86 82 78 81 85 75 78 93 96 93 70 64 56 47 32 28
98 85 88 91 97 97 98 98 97 97 98 87 98 82 83 75 69 59 48 67 88 96 100 93 98 94 95 96 81 80 75 63 62 67 64 63 55 64 63 56 57 54 59 71 75 72 62 54 48 39 31 30 24 24
91 86 93 97 98 98 95 98 94 97 94 88 87 84 82 76 57 53 54 67 76 87 97 99 100 96 98 97 79 70 74 62 62 67 68 67 68 61 62 57 55 52 49 52 51 48 41 32 26 27 24 23 22 24
92 89 92 96 98 97 96 99 95 78 96 89 88 91 80 72 61 63 58 84 100 99 99 98 96 88 92 83 98 100 96 76 64 68 74 74 65 55 54 53 56 54 48 44 41 36 30 27 25 24 23 23 24 32
95 94 98 97 98 97 98 97 100 99 58 79 79 89 85 98 99 97 100 92 100 100 94 93 91 74 72 94 100 100 92 68 65 55 62 71 68 52 53 52 48 45 43 40 35 30 27 27 26 26 27 30 29 28
98 97 98 97 98 96 87 97 92 84 94 92 85 72 88 88 96 97 100 100 98 86 84 71 78 79 93 98 99 86 68 69 63 58 64 62 66 59 53 50 45 43 40 36 32 31 32 32 32 35 33 30 30 33
97 98 98 98 99 99 92 78 99 98 94 95 98 94 87 87 94 99 97 97 96 73 65 82 92 97 98 100 85 75 70 66 59 59 59 60 60 58 51 46 42 39 36 37 38 40 40 38 40 37 29 25 24 23
95 98 98 98 98 97 98 99 99 97 96 81 79 91 87 87 86 96 93 90 80 86 88 89 97 97 97 90 84 77 70 54 50 54 54 51 50 49 43 40 38 36 38 46 46 44 45 43 34 26 24 23 23 20
98 98 98 97 94 93 95 88 82 84 97 87 88 84 79 93 97 92 90 86 97 94 96 99 98 98 96 85 82 72 55 44 42 45 46 41 43 46 46 46 48 49 49 46 46 42 36 30 29 29 29 26 21 22
97 96 94 90 92 92 92 100 96 93 87 90 90 92 95 90 94 94 86 100 98 98 100 99 91 80 82 81 76 61 54 46 42 44 47 45 43 41 45 45 47 55 54 50 42 41 34 34 32 29 25 27 36 52
100 91 98 86 85 90 93 90 89 91 99 99 95 99 95 99 96 83 100 100 99 100 100 83 82 77 77 70 59 55 51 45 41 46 50 49 47 45 41 40 47 49 50 47 42 33 29 26 26 30 36 39 54 75
89 88 94 97 100 88 96 96 95 94 80 79 93 99 100 88 88 100 100 100 100 100 92 76 73 73 66 58 54 53 52 49 49 50 47 45 45 44 40 34 29 32 31 29 27 26 28 30 32 39 47 59 81 86
100 98 95 98 98 91 90 87 84 75 76 85 90 94 95 99 100 99 99 99 99 99 84 72 66 58 54 51 49 47 47 46 42 41 33 37 38 40 39 38 36 32 30 31 34 40 44 51 56 61 68 82 94 100
99 90 96 99 94 96 92 95 96 99 99 98 96 99 99 98 99 98 99 100 99 91 79 57 48 39 40 34 40 43 42 40 36 25 23 32 36 41 40 39 42 46 50 54 64 74 81 82 85 92 99 99 99 99
100 92 94 94 100 99 100 92 92 94 96 99 95 89 96 95 98 98 99 100 92 81 90 81 76 69 62 60 58 60 65 66 63 55 52 50 55 56 57 59 59 60 64 68 71 71 71 76 79 78 86 98 100 99
96 96 95 98 99 100 97 97 98 97 99 98 97 98 99 98 97 97 97 99 99 94 88 86 81 81 79 73 68 57 53 49 48 47 46 44 44 47 50 55 58 59 58 62 62 64 68 78 92 100 100 100 99 99
97 98 98 98 98 98 98 95 97 98 97 97 98 98 98 96 96 97 98 99 100 99 96 89 81 79 77 69 61 61 62 50 44 42 42 44 47 50 53 53 53 52 53 56 61 66 77 93 100 98 98 98 100 100